Regional Weather Roundup
Issued by NWS Wilmington, NC

Home | Current Version | Previous Version | Text Only | Print | Product List | Glossary On
Versions: 1 2 3 4 5 6 7 8 9 10 11 12 13 14 15 16 17 18 19 20 21 22 23 24 25 26 27
000
ASUS42 KILM 241613
RWRILM
RWRILM
REGIONAL HOURLY WEATHER ROUNDUP
NATIONAL WEATHER SERVICE WILMINGTON NC
1200 PM EDT TUE APR 24 2018

NOTE: "FAIR" INDICATES FEW OR NO CLOUDS BELOW 12,000 FEET WITH NO
SIGNIFICANT WEATHER AND/OR OBSTRUCTIONS TO VISIBILITY.

...............WFO WILMINGTON COUNTY WARNING AREA...............

......COASTAL NC AND SC COUNTIES......

CITY           SKY/WX    TMP DP  RH WIND       PRES   REMARKS
WILMINGTON     PTSUNNY   63  61  93 SE6       29.95F
N MYRTLE BEACH CLOUDY    67  65  93 VRB6      29.90S
MYRTLE BEACH   PTSUNNY   71  67  87 S12       29.90F

......INLAND NC AND SC COUNTIES.......

CITY           SKY/WX    TMP DP  RH WIND       PRES   REMARKS
LUMBERTON      CLOUDY    65  65 100 SE13      29.89F
ELIZABETHTOWN  CLOUDY    65  63  93 MISG      29.92F
WHITEVILLE     CLOUDY    69  65  88 SE8       29.90F
FLORENCE       PTSUNNY   73  66  78 S9        29.86F
DARLINGTON     CLOUDY    67  65  93 SE8       29.87F
KINGSTREE      PTSUNNY   73  61  64 SW7       29.86F
HARTSVILLE     CLOUDY    64  63  94 SE5       29.87F FOG
BENNETTSVILLE  CLOUDY    68  68 100 E5        29.88S FOG
CONWAY         FAIR      73  68  83 SE12      29.88F
GEORGETOWN     FAIR      73  66  78 S12       29.89F
MARION         CLOUDY    72  66  83 SE8       29.87F

....................REST OF NORTH CAROLINA......................

.........EASTERN NC.........

CITY           SKY/WX    TMP DP  RH WIND       PRES   REMARKS
CAPE HATTERAS  HVY RAIN  64  62  93 SE32G39   30.09F VSB 1
JACKSONVILLE   LGT RAIN  61  60  97 E10       29.96F
MOREHEAD CITY  HVY RAIN  61  61 100 NW8G25    30.04R VSB 3/4
KENANSVILLE    CLOUDY    63  61  94 S6        29.96R
NEW BERN       HVY RAIN  61  61 100 S7        30.02F VSB 1/2
ELIZABETH CITY RAIN      61  60  97 E17G28    30.13F FOG

.........CENTRAL NC.........

CITY           SKY/WX    TMP DP  RH WIND       PRES   REMARKS
RALEIGH DURHAM CLOUDY    59  58  96 E15       29.97F
ROCKY MOUNT    LGT RAIN  60  58  92 E9G23     29.97F
ROANOKE RAPIDS NOT AVBL
FAYETTEVILLE   CLOUDY    64  62  93 SE12      29.91F
HOFFMAN        CLOUDY    64  62  93 E9G18     29.89F

.........WESTERN NC.........

CITY           SKY/WX    TMP DP  RH WIND       PRES   REMARKS
CHARLOTTE      CLOUDY    64  62  93 E12G20    29.88F FOG
GREENSBORO     LGT RAIN  59  58  96 E10       29.95F FOG
HICKORY        NOT AVBL
BOONE          NOT AVBL
ASHEVILLE      NOT AVBL

.....................REST OF SOUTH CAROLINA.....................

.........EASTERN SC.........

CITY           SKY/WX    TMP DP  RH WIND       PRES   REMARKS
CHARLESTON     FAIR      76  57  51 SW9G16    29.87F
BEAUFORT MCAS  FAIR      74  62  66 SW10      29.88F
HILTON HEAD    MOSUNNY   72  59  64 SW9       29.90F

.........CENTRAL SC.........

CITY           SKY/WX    TMP DP  RH WIND       PRES   REMARKS
COLUMBIA       CLOUDY    73  64  73 E8        29.83F
ORANGEBURG     PTSUNNY   72  61  68 S10       29.86F
SUMTER SHAW    PTSUNNY   73  63  69 S7        29.83F

.........WESTERN SC.........

CITY           SKY/WX    TMP DP  RH WIND       PRES   REMARKS
GREENVILLE     NOT AVBL
ROCK HILL      CLOUDY    64  63  96 VRB5      29.87F
ANDERSON       CLOUDY    65  60  84 E9        29.85F
CLEMSON        NOT AVBL
GREENWOOD      FAIR      71  61  70 VRB7      29.85F


...................COASTAL AND OFFSHORE REPORTS..................

................LOCAL PIERS AND NC RESERVE................


STATION/POSITION TIME  SKY/WX   TEMP    WIND        PRES    VSBY
                                AIR SEA DIR/SP/G
                 (UTC)          (F)     (DEG/KT/KT) (MB)    (MI)
JOHNY MRCER PIER 1548            61 63  140/  9/ 10 1014.4F
NC RESRV MASNBRO NOT AVBL
OCEAN CREST PIER NOT AVBL
SPRINGMAID  PIER 1548                               1015.6F


................COASTAL AND OFFSHORE BUOYS................


STATION/POSITION TIME  SKY/WX   TEMP    WIND        PRES    VSBY
                                AIR SEA DIR/SP/G
                 (UTC)          (F)     (DEG/KT/KT) (MB)    (MI)
DIMNDSHOAL 41025 1600            66 71  130/ 29/ 37 1018.8
CAPE LOOKOUT     1600                   120/ 27/ 32 1016.0
ONSLOW BAY 41036 NOT AVBL
ONSLOW BAY 41064 1508            65 65  140/ 19/ 29 1015.1F
ONSLOW BAY 41159 1600               65                N/A
WVE H/P(F/S)= 15/ 9 SWL H/P/D(F/S/D)=  5/140/11

MASNBO INL 41110 1600               61                N/A
WVE H/P(F/S)= 10/10 SWL H/P/D(F/S/D)=  3/130/11

WILM HARBR 41108 1600               61                N/A
WVE H/P(F/S)=  9/11 SWL H/P/D(F/S/D)=  5/150/11

27SE WRITB 41037 1508            61 65  150/ 10/ 19 1015.4F
FRYING PAN 41013 1600            72 70  140/ 23/ 29 1013.0
SUNST NRSH 41024 1508            63 62   90/  6/ 10 1013.2F
CAPRS NRSH 41029 1508            65 64  200/  8/ 12 1011.1F
EDISTO     41004 1550               69  230/  8/ 12 1012.7F
WVE H/P(F/S)= 10/11 SWL H/P/D(F/S/D)= 10/130/11



..........OFFSHORE BUOYS BEYOND 100 NM OFFSHORE...........
.....IN A TRIANGLE---HAT TO BERMUDA TO BAHAMAS TO HAT.....


STATION/POSITION TIME  SKY/WX   TEMP    WIND        PRES    VSBY
                                AIR SEA DIR/SP/G
                 (UTC)          (F)     (DEG/KT/KT) (MB)    (MI)
150E HAT   41001 NOT AVBL
W BERMUDA  41048 1550               70  110/ 21/ 25 1025.2F
WVE H/P(F/S)=  7/ 7 SWL H/P/D(F/S/D)=  2/150/12

ATLANTIC S 41049 1600               76   50/ 17/ 21 1023.1
E BAHAMAS  41046 1600               79  100/ 14/ 17 1020.1
NE BAHAMAS 41047 1550                   110/ 17/ 21 1020.6F
WVE H/P(F/S)=  6/ 7 SWL H/P/D(F/S/D)=  2/ 80/14

120E CANVRL41010 1550            76 75  260/  6/ 10 1015.4F
WVE H/P(F/S)=  7/ 8 SWL H/P/D(F/S/D)=  7/ 90/ 8


END




USA.gov is the U.S. government's official web portal to all federal, state and local government web resources and services.